Wind_Speed
38 36 34 31 28 26 25 26 28 27 25 25 26 27 29 29 30 30 30 31 31 31 31 30 29 29 30 31 31 32 33 34 36 37 39 40 41 43 44 46 48 51 54 56 57 58 58 56 55 55 56 56 55 55 56 55 55 55 54 53 53 52 52 51 49 48 48 48 48 47 45 44 45 47 48 48 48 48 48 49 48 48 49 50 50
38 42 40 34 29 27 26 26 28 27 24 25 26 26 27 27 28 29 30 30 31 31 31 31 30 29 30 31 31 31 32 33 34 36 37 39 40 42 44 45 46 48 51 54 57 59 60 57 55 55 55 56 55 55 56 56 56 56 55 54 54 53 52 51 49 47 47 47 47 46 44 43 43 45 46 47 47 47 48 49 49 49 50 50 50
37 39 38 34 30 28 27 25 26 28 26 26 26 25 25 25 26 27 28 30 30 30 31 31 31 30 30 31 31 32 32 32 34 35 36 37 39 42 44 45 47 47 49 52 54 57 60 60 58 57 57 57 57 56 56 56 57 56 55 54 53 52 51 50 49 47 46 46 46 45 44 42 42 43 45 46 46 46 46 48 49 49 50 50 50
35 32 30 30 29 28 26 24 25 28 30 30 28 27 26 26 26 26 27 29 30 30 30 30 30 30 31 32 32 33 33 33 35 36 36 37 38 41 43 45 47 48 49 51 52 54 58 59 59 58 58 58 58 58 57 55 56 56 55 54 53 52 52 51 49 46 44 44 45 44 43 42 42 43 44 44 44 44 45 46 46 47 48 48 49
40 37 32 30 30 28 26 24 25 28 32 35 34 32 31 30 29 28 28 30 31 31 30 30 30 30 31 32 33 34 34 35 36 36 37 38 39 40 42 44 45 47 49 51 52 53 55 57 57 56 56 58 60 60 58 55 55 55 54 53 52 51 52 51 48 45 43 43 43 42 42 43 43 43 42 42 42 42 42 42 42 42 44 45 47
41 42 39 36 34 31 28 26 26 29 35 40 39 36 34 33 33 32 31 31 32 32 31 31 30 31 31 32 33 35 36 36 36 36 37 39 40 41 41 42 44 44 46 49 51 52 54 55 56 55 53 54 58 60 59 56 55 55 54 52 50 49 51 50 47 43 42 42 42 43 44 44 43 41 40 40 40 39 38 37 37 38 40 42 44
41 40 40 39 37 34 32 31 32 35 39 42 40 37 37 37 38 37 35 34 34 34 32 32 31 31 31 33 34 35 36 36 35 35 36 37 38 39 39 40 42 42 44 46 49 51 52 52 53 55 54 51 52 57 58 56 55 55 52 50 48 47 48 47 45 43 41 40 41 43 44 44 42 40 39 38 37 35 34 33 34 36 38 40 41
44 41 38 37 37 37 35 36 38 41 41 40 39 39 40 41 42 42 41 38 36 35 32 32 32 31 32 32 33 34 35 35 35 34 35 35 35 36 36 37 39 41 42 44 46 48 50 50 50 53 54 51 49 51 55 55 54 54 51 49 47 46 45 44 43 42 40 40 41 43 44 44 41 39 39 36 32 30 30 32 35 36 37 39 40
46 43 38 33 33 35 37 39 40 41 41 41 41 42 42 44 46 46 43 40 37 35 32 32 33 33 32 32 33 33 34 34 34 33 34 34 34 35 35 36 38 40 41 42 44 45 47 49 49 49 51 52 49 48 51 53 52 51 50 48 47 45 43 42 41 41 40 40 42 43 43 42 39 37 35 32 29 29 31 34 36 37 37 38 39
47 45 39 34 31 31 34 38 40 41 42 43 44 45 46 46 47 44 40 38 35 33 32 32 32 33 32 32 33 34 34 34 33 32 32 33 33 34 35 36 37 39 40 42 43 44 45 47 49 48 49 51 50 47 47 50 50 49 48 47 46 45 43 42 41 41 41 41 42 42 41 39 37 35 32 31 31 31 33 35 36 37 37 38 39
47 44 40 35 33 31 31 34 37 39 41 42 42 43 42 40 39 37 35 33 30 28 28 29 30 31 32 32 33 33 33 33 32 31 31 31 31 33 34 35 36 37 38 40 41 43 44 46 47 48 49 51 51 47 45 46 47 47 47 46 46 45 44 43 42 41 41 41 41 40 39 38 37 34 31 31 32 32 34 35 36 37 38 38 39
44 41 38 36 34 32 31 32 33 34 35 36 36 35 34 32 29 28 27 26 24 24 25 26 29 31 31 31 31 32 31 31 30 29 29 29 29 31 33 34 35 36 36 38 39 40 42 43 45 47 48 48 49 47 45 44 45 45 45 45 44 43 43 42 42 41 41 41 40 38 38 37 36 33 31 31 32 34 36 36 36 37 38 38 39
40 37 36 35 33 32 31 31 31 32 31 31 30 29 28 24 21 20 20 20 21 23 24 26 29 30 30 29 29 29 29 29 28 27 27 27 28 30 32 33 35 36 36 37 38 39 40 40 42 44 46 46 45 45 44 43 43 44 45 44 43 42 42 41 41 42 42 41 39 38 37 36 34 33 32 32 34 36 37 37 37 37 37 38 38
36 34 33 33 31 30 29 29 29 29 29 28 25 23 20 17 16 17 17 17 20 23 24 26 28 27 27 28 28 28 28 27 26 25 25 27 28 29 31 33 36 37 37 37 38 38 38 38 39 41 43 43 43 43 43 43 42 44 45 45 43 42 42 42 42 42 41 39 37 36 35 34 33 33 33 34 35 36 36 36 36 35 36 37 36
33 31 30 30 28 26 25 25 25 25 26 24 20 16 13 13 14 14 14 15 19 22 24 25 25 25 26 27 27 28 27 26 26 26 26 27 29 30 32 34 37 38 37 36 36 37 36 36 38 39 40 42 42 41 41 42 41 42 44 45 43 41 42 42 42 41 39 35 34 34 33 33 33 34 35 34 35 35 35 35 34 34 35 36 35
32 29 27 26 24 21 20 20 20 21 22 19 14 10 8 9 12 13 14 16 19 21 22 23 24 25 26 26 27 26 25 26 27 27 28 29 30 32 34 36 38 39 38 36 35 34 33 34 36 37 39 41 41 39 38 39 39 40 43 45 43 41 41 41 41 39 36 33 33 33 33 34 35 36 35 34 34 34 34 33 33 33 35 35 33
30 26 24 22 19 17 17 17 17 18 16 11 7 5 6 8 11 13 16 17 17 19 20 21 23 24 25 25 25 26 26 26 27 28 30 32 32 33 36 38 39 40 38 35 32 31 31 32 33 36 38 39 38 36 35 37 38 39 41 44 44 41 40 40 39 37 35 33 33 34 35 36 36 35 33 33 33 33 32 31 31 33 34 33 32
27 23 19 16 15 14 13 13 13 10 6 5 5 5 8 11 12 13 15 15 15 17 19 20 21 22 22 23 24 26 28 29 30 31 32 34 34 35 38 40 40 39 36 33 31 30 30 31 32 34 36 36 34 33 34 36 38 39 41 43 43 41 39 38 36 35 34 33 33 35 36 35 33 32 32 33 32 31 30 30 30 32 33 33 32
24 18 14 11 10 10 9 8 6 2 5 7 6 8 10 11 11 11 11 12 14 15 16 18 19 20 21 23 25 28 31 32 32 32 32 33 35 37 39 40 39 36 33 32 30 28 29 30 31 32 33 32 32 32 33 35 37 39 40 42 42 40 37 34 33 32 32 32 33 34 34 33 32 32 32 32 31 29 29 30 30 31 32 32 32
18 12 9 7 7 7 6 3 1 4 7 7 8 10 10 9 8 8 8 10 12 13 14 17 19 21 23 25 28 31 33 34 34 33 32 33 35 37 39 38 35 31 30 29 27 25 27 29 30 30 29 29 31 31 32 33 34 36 39 39 38 36 33 31 30 30 31 33 34 34 33 32 31 31 31 30 29 29 29 30 30 30 30 30 31
11 7 5 4 4 4 4 3 4 5 5 6 8 8 8 8 8 7 8 10 12 14 16 19 21 22 24 26 29 30 32 33 33 31 30 30 31 33 34 32 29 27 26 24 20 21 25 28 28 26 25 26 28 29 30 31 31 33 36 36 32 29 28 29 30 31 33 34 34 33 31 30 30 30 29 29 28 28 28 29 29 29 29 29 29
6 5 4 2 2 4 4 3 4 5 6 7 6 5 6 7 8 9 11 13 15 16 18 21 22 23 23 25 27 28 28 28 28 26 25 25 26 27 27 25 24 23 20 16 14 18 23 24 23 21 21 22 24 26 28 29 28 29 30 29 28 27 28 30 32 34 34 34 32 31 30 29 29 28 27 27 27 27 28 28 28 28 28 28 28
6 7 5 3 5 6 6 5 4 4 4 6 6 6 6 6 8 11 14 16 16 17 19 20 21 22 24 27 29 28 25 23 22 22 21 21 22 22 22 21 20 18 14 12 13 17 19 20 20 20 20 21 22 23 26 27 26 25 25 25 27 28 30 32 34 34 33 31 30 29 29 28 27 26 25 26 27 27 27 26 26 26 26 26 27
8 8 6 6 8 8 8 7 5 3 5 7 8 8 7 7 7 9 13 15 16 17 17 17 19 21 25 28 28 24 19 18 19 20 20 21 21 20 19 18 16 15 14 13 15 17 18 19 20 20 20 20 21 22 26 25 23 22 24 26 27 29 31 34 34 31 29 28 27 27 26 25 24 24 24 25 26 25 25 24 24 24 25 26 27
10 8 6 8 10 10 10 8 6 5 7 9 9 8 8 9 9 10 11 14 15 16 15 16 19 22 24 26 25 20 17 16 16 17 18 19 19 19 17 15 14 14 14 15 16 17 18 20 20 20 20 20 20 24 26 23 22 24 25 25 27 30 32 32 29 26 25 25 25 25 24 23 22 23 24 24 24 23 23 23 23 24 25 25 26
10 8 7 8 10 10 10 8 6 5 6 7 7 7 7 9 11 12 13 14 14 15 15 16 19 21 23 24 23 19 17 15 13 13 14 15 15 14 13 12 13 14 15 17 18 19 19 19 19 19 19 20 22 25 24 23 24 26 25 26 29 31 29 26 24 23 23 23 22 22 21 21 21 22 22 22 22 22 22 23 24 24 25 25 25
9 7 7 7 7 8 8 7 6 5 5 5 5 4 5 8 11 13 15 17 16 15 15 17 19 20 21 22 21 19 17 13 9 7 7 9 10 10 10 12 13 15 17 18 18 18 18 17 18 19 20 22 24 24 24 26 27 27 27 29 29 27 24 22 22 21 21 20 19 19 19 19 20 20 20 20 21 21 22 24 24 24 24 24 24
8 7 7 7 6 5 6 5 4 3 5 4 3 3 4 6 11 14 16 18 18 17 17 19 20 20 21 20 18 16 14 10 5 4 6 7 7 7 9 11 13 13 13 13 13 14 15 17 19 21 22 23 25 25 26 27 26 25 25 26 24 22 21 21 20 19 18 18 17 18 18 18 18 18 19 19 21 22 23 23 23 23 23 24 24
7 7 7 7 6 5 4 3 1 2 4 2 4 5 5 8 12 14 15 16 17 18 20 21 22 23 22 19 15 11 8 5 1 4 7 7 6 7 8 8 9 9 8 8 8 10 13 15 17 18 20 21 22 22 22 22 22 22 22 22 21 21 20 19 17 17 16 16 16 17 17 17 17 18 19 20 21 22 22 22 22 23 23 24 25
6 6 6 5 5 4 3 2 1 3 2 3 6 4 5 9 13 14 14 15 17 20 22 24 25 24 21 16 10 7 3 1 2 6 8 8 8 9 9 9 8 8 8 7 7 7 9 12 13 13 14 15 16 17 18 19 20 20 20 21 20 19 17 16 15 15 15 15 16 16 16 17 18 19 20 20 20 20 20 21 21 23 23 24 24
5 5 4 3 3 3 2 0 2 3 4 6 6 3 2 5 11 12 13 14 17 21 24 25 23 20 16 10 5 6 6 4 5 8 9 9 9 11 12 12 11 10 10 10 9 9 9 9 10 10 12 13 14 16 17 18 18 19 19 19 19 16 15 15 14 14 14 15 15 16 17 18 18 19 19 18 18 18 19 20 21 22 23 24 24
5 4 3 3 3 3 2 1 1 3 6 8 8 5 3 2 5 9 12 15 18 22 24 22 18 14 10 4 3 9 9 6 8 9 8 8 11 14 14 13 12 11 11 11 11 11 11 11 11 11 13 15 16 16 17 17 18 19 18 17 15 14 14 14 14 14 15 15 16 17 17 17 17 17 16 16 16 17 19 20 22 22 23 23 25
6 5 4 3 3 3 2 1 1 3 6 7 8 8 7 5 5 7 10 14 20 24 24 20 18 14 7 3 5 9 10 8 9 9 7 9 15 17 15 13 13 12 11 10 10 10 11 12 12 12 13 15 15 16 17 17 17 17 16 15 14 14 14 14 14 15 16 16 16 16 16 15 14 13 13 14 16 18 19 21 22 22 23 24 25
6 5 4 3 3 2 1 2 1 3 6 7 8 10 10 9 9 10 12 15 21 26 26 23 22 18 11 6 5 7 8 7 8 9 8 11 17 18 14 11 11 10 8 7 6 6 7 8 10 11 12 13 13 14 15 15 15 15 14 14 14 15 15 15 15 16 16 15 15 14 12 11 11 11 13 15 17 18 20 21 21 22 23 24 25
6 5 4 4 2 1 1 1 2 6 7 8 9 9 9 9 9 12 16 18 21 25 27 25 24 21 15 9 6 6 6 5 7 9 9 11 14 13 9 7 6 6 5 4 3 3 4 5 6 8 10 12 13 14 14 14 14 14 14 14 14 14 15 15 15 15 14 13 11 10 9 9 10 12 14 16 17 19 20 20 22 22 23 24 25
5 5 5 4 2 1 2 3 5 7 7 8 9 10 11 10 9 12 17 19 19 21 24 24 23 22 18 13 8 5 5 5 6 8 9 10 10 9 8 6 5 4 4 2 2 2 3 5 7 9 10 12 14 16 16 16 15 15 15 15 15 15 15 15 14 12 11 9 8 8 8 9 11 13 15 16 18 19 20 21 22 23 24 25 26
6 5 5 4 2 1 2 4 5 7 8 9 9 10 11 10 9 11 15 18 18 18 19 21 23 21 19 16 12 6 4 7 7 7 8 9 9 9 8 6 5 6 6 5 5 4 4 6 9 11 12 14 16 18 18 17 17 16 16 15 15 15 14 13 11 9 7 6 6 7 9 11 12 14 15 16 18 19 20 22 23 24 25 26 26
7 5 4 3 2 2 3 4 5 7 9 9 9 11 11 9 8 10 13 16 17 17 16 18 21 22 20 17 14 11 6 6 10 8 7 8 9 8 7 8 9 9 8 7 6 5 6 9 11 13 15 16 17 18 19 17 16 15 14 14 14 13 11 9 7 6 5 6 7 8 10 11 13 14 15 17 18 20 21 22 23 25 25 26 26
7 5 3 1 2 4 4 5 6 8 9 9 9 10 10 8 8 10 12 13 15 16 16 17 19 21 22 19 15 12 8 4 7 10 10 10 9 9 10 11 10 9 8 6 5 4 6 9 12 13 15 17 18 18 17 16 15 14 13 12 12 10 8 6 5 5 5 6 8 9 10 12 13 15 16 17 19 21 22 23 24 25 26 26 27
7 5 3 1 2 3 4 5 7 7 8 8 9 7 7 7 8 12 13 13 14 16 18 18 18 19 21 21 18 13 8 4 2 7 11 13 13 13 13 12 10 9 7 5 4 3 4 6 9 11 13 15 16 16 15 14 13 12 11 10 9 7 6 5 5 5 6 8 9 10 11 12 14 16 17 19 20 22 23 24 25 26 26 26 27
7 6 5 3 2 3 3 4 5 6 6 7 7 6 6 6 9 11 12 13 15 16 17 17 17 18 19 20 20 16 10 6 2 4 9 11 12 12 11 11 9 8 6 5 3 2 3 5 7 10 11 12 13 13 12 12 11 10 9 8 7 6 5 5 6 6 8 9 9 10 12 14 15 17 19 20 22 23 24 25 26 26 27 27 28
7 7 7 5 3 3 3 3 3 5 6 6 5 6 7 8 10 12 12 11 12 14 15 15 17 18 17 18 20 17 12 8 4 2 6 9 9 8 7 7 7 6 6 6 4 1 4 7 8 10 11 11 11 11 10 9 9 8 8 7 6 6 6 6 7 8 9 10 11 12 14 15 17 19 21 22 24 25 26 26 26 27 27 28 29
8 8 8 6 4 3 3 3 4 5 6 5 6 6 7 9 12 13 12 10 10 13 14 14 16 17 16 16 19 17 12 8 6 2 3 6 7 7 6 5 4 4 5 5 3 2 6 9 10 11 11 11 11 11 10 9 9 8 8 7 7 7 7 7 8 9 10 11 12 14 16 18 20 21 23 24 25 26 26 27 27 27 28 28 29
8 8 8 7 6 5 5 5 5 6 6 6 6 6 8 10 12 13 12 11 13 15 14 14 17 18 16 16 18 17 12 8 5 4 3 3 3 2 2 1 1 1 2 2 2 6 9 10 11 11 11 10 10 9 8 8 7 7 7 6 7 7 7 8 9 10 11 13 15 16 18 20 22 23 24 25 26 26 27 27 27 28 28 28 28
8 8 8 7 7 7 7 5 5 5 5 4 4 5 6 8 11 13 13 13 14 16 16 17 19 18 15 16 18 16 11 6 5 5 7 7 6 5 5 5 5 4 5 6 7 8 10 10 11 10 9 8 7 6 5 5 5 5 5 6 7 8 9 10 11 12 13 15 17 18 20 22 23 24 25 26 26 26 27 27 27 27 27 27 27
7 8 7 6 7 7 6 5 4 4 4 4 4 4 5 7 9 12 14 15 16 18 19 19 18 15 14 16 17 14 8 4 5 8 9 9 8 8 8 10 9 8 8 8 9 9 9 10 9 8 7 7 6 5 5 4 4 5 6 7 8 9 10 11 13 14 15 17 18 20 22 23 24 25 25 25 26 26 26 27 27 27 27 26 26
6 7 6 5 6 7 7 6 5 5 6 7 6 5 6 8 10 12 15 17 18 18 18 17 15 13 15 17 16 11 5 4 8 10 10 10 9 9 10 12 13 12 11 11 10 10 10 10 9 7 6 6 5 5 5 5 6 7 7 8 9 10 11 13 14 15 17 19 20 22 23 23 24 24 24 25 25 26 26 26 26 26 26 26 27
6 5 4 3 5 6 6 6 6 6 7 7 7 6 7 10 12 14 16 17 16 15 14 13 13 14 16 16 13 8 6 7 10 12 11 11 11 12 14 15 15 14 13 13 12 11 10 9 8 6 5 5 5 5 6 6 7 8 8 9 10 12 13 14 16 17 19 20 21 22 23 23 23 24 24 25 25 25 25 26 26 26 26 28 28
5 5 4 4 4 5 5 4 4 4 5 6 6 7 10 12 14 16 17 16 12 10 11 11 13 15 16 14 10 8 8 9 12 13 13 13 15 16 17 17 16 15 14 13 12 10 9 8 6 5 5 4 5 5 6 6 7 8 9 11 12 13 14 16 17 18 19 20 21 21 22 22 23 23 24 24 24 24 25 25 26 27 28 29 29
3 4 4 4 3 3 3 3 2 2 3 4 6 8 11 13 14 16 17 14 10 8 9 11 13 15 14 11 9 9 10 11 14 15 16 17 18 18 18 18 17 15 14 12 10 9 8 7 6 5 4 4 5 5 5 6 8 9 10 12 13 14 15 17 18 18 19 20 20 20 21 22 22 23 23 23 24 24 25 26 27 28 29 28 27
3 2 2 3 3 2 2 1 2 3 4 5 6 9 11 14 15 15 15 13 9 7 9 12 13 13 11 10 10 11 12 15 17 18 18 19 19 18 17 16 15 13 12 10 8 8 7 6 5 5 4 5 5 6 6 7 9 10 11 12 14 15 16 16 17 17 18 19 19 20 21 21 21 22 22 23 24 25 26 27 28 28 28 26 26
Wind_Direction
311 313 312 299 284 280 279 279 280 279 279 277 277 280 282 284 285 285 284 281 279 278 276 275 272 269 266 262 259 256 255 254 255 255 256 256 255 255 254 253 251 248 246 246 246 247 245 244 244 244 244 246 247 247 248 248 250 252 253 255 257 258 257 255 252 252 254 255 256 256 254 254 255 256 257 258 261 263 264 264 266 267 268 268 266
306 313 315 306 291 281 279 281 284 282 277 274 274 278 282 284 284 284 283 282 280 278 277 275 272 269 267 264 261 258 255 254 254 254 256 257 258 258 258 258 257 254 251 248 246 245 245 244 244 244 245 245 245 246 246 247 248 250 252 254 256 257 256 254 252 251 253 254 255 257 257 255 255 255 256 258 260 262 264 265 266 268 268 267 265
308 312 313 308 300 290 283 281 284 284 279 273 274 276 279 281 281 281 280 279 278 276 275 274 272 270 267 265 263 261 259 258 257 258 257 258 259 260 260 260 260 259 257 254 251 248 245 243 243 244 245 245 245 245 246 246 247 249 250 252 254 255 254 251 250 249 250 253 254 256 256 255 255 255 257 259 260 262 264 265 266 266 266 265 263
304 303 300 297 294 290 285 278 277 279 277 274 272 270 270 272 273 276 278 277 275 273 273 273 272 271 269 267 266 264 264 264 264 264 264 263 263 263 262 262 261 260 260 258 256 254 250 246 243 243 244 245 244 244 245 246 246 248 249 250 252 253 252 249 247 247 248 250 252 254 256 256 257 257 259 260 262 263 264 265 264 264 263 263 261
301 295 287 281 279 278 275 272 272 273 272 270 269 267 267 267 268 271 275 277 276 271 270 270 270 270 270 270 270 269 269 269 269 270 270 270 269 267 266 265 263 261 260 258 257 255 254 252 247 244 244 244 243 243 244 245 245 246 247 248 249 251 251 249 247 245 246 247 250 253 256 257 258 259 260 262 263 265 265 264 263 262 262 262 262
308 301 292 283 278 275 268 264 264 264 263 264 267 269 270 270 271 272 274 277 277 273 269 268 269 270 270 270 270 269 269 269 270 271 272 272 272 270 268 266 265 262 260 257 256 254 253 253 250 247 245 245 243 242 242 243 244 245 245 246 248 249 249 249 248 245 244 246 249 253 255 256 257 258 260 262 264 264 262 261 261 261 262 262 262
319 312 303 291 282 275 267 260 256 257 259 262 266 270 273 276 277 277 277 276 277 275 270 267 268 269 270 270 270 271 271 270 271 272 273 273 274 273 271 269 267 263 260 257 255 253 251 250 250 248 246 246 246 242 240 240 242 243 243 243 245 246 246 247 246 244 243 245 249 252 254 256 257 258 260 262 261 260 260 261 262 262 261 262 263
323 322 314 300 285 276 268 263 260 260 263 265 268 270 274 278 280 279 279 277 275 274 271 267 265 266 269 271 272 274 275 275 275 274 274 275 275 274 272 270 267 264 261 258 255 253 251 248 247 247 245 246 248 245 241 239 240 240 240 240 240 241 243 242 242 242 244 246 248 251 253 255 255 257 259 259 257 258 260 262 261 262 263 265 266
322 325 322 312 297 283 272 269 267 267 269 269 270 273 276 280 280 279 278 276 272 270 268 266 265 265 268 271 273 275 275 275 275 275 274 275 275 275 273 269 266 263 261 259 256 253 251 248 245 244 243 243 246 246 242 239 238 237 237 237 236 237 239 238 237 239 242 245 247 249 252 253 254 256 258 257 255 256 258 258 259 262 263 265 267
317 321 321 319 312 298 284 278 275 274 273 273 274 277 279 280 280 278 276 272 266 262 262 265 266 267 268 269 272 273 273 274 274 273 274 275 276 276 274 271 268 264 260 258 256 254 251 248 245 242 240 239 242 245 243 240 237 235 234 235 234 234 236 236 235 236 239 243 246 248 249 250 251 254 256 255 253 254 256 258 261 263 265 267 268
311 314 317 317 315 309 299 290 284 280 278 278 278 278 279 278 277 276 273 268 260 253 256 261 265 267 266 266 267 267 268 269 269 269 271 275 277 276 274 273 270 266 262 258 255 253 250 248 246 243 239 237 239 243 244 240 237 234 233 233 233 232 234 235 234 235 237 241 243 245 246 246 248 252 255 255 253 255 258 261 264 267 270 272 271
305 309 312 313 311 309 306 298 291 285 282 280 278 276 275 273 272 271 269 263 253 247 253 260 263 264 264 264 264 264 264 263 262 265 270 274 275 275 274 273 271 267 264 259 255 252 249 247 247 245 241 238 237 241 243 241 237 235 233 234 234 233 234 235 234 234 236 238 239 241 242 245 248 253 255 255 256 258 260 263 266 269 272 274 273
304 306 308 309 309 307 306 300 294 289 284 282 279 275 273 269 265 264 261 253 245 245 251 257 260 262 265 265 265 264 263 262 262 266 272 274 275 275 274 275 274 271 267 260 255 251 248 247 247 246 243 239 236 239 241 240 238 236 234 235 234 233 233 233 232 232 234 235 236 238 240 243 248 252 255 256 257 259 261 263 267 270 273 274 274
304 305 306 307 307 305 304 298 292 287 283 280 277 274 271 266 258 253 248 245 246 248 252 257 260 264 267 267 267 266 265 265 267 269 273 274 274 274 273 274 274 273 270 264 256 251 248 245 246 247 244 238 235 236 238 237 236 236 235 234 234 232 231 231 230 231 232 234 236 239 241 245 249 252 254 255 256 258 261 264 268 271 273 275 274
305 306 305 307 305 302 299 293 288 285 282 278 273 268 266 261 253 243 236 242 252 255 258 263 266 268 268 268 268 267 267 269 271 272 273 274 273 273 272 272 272 272 271 266 257 251 247 244 244 245 242 237 234 234 236 235 235 235 235 234 234 233 231 230 230 231 233 235 238 241 244 247 249 250 251 253 256 259 263 266 269 271 273 273 273
307 306 305 306 302 296 294 292 291 288 283 275 265 258 259 254 247 239 236 244 254 260 264 267 269 270 270 270 269 270 271 272 273 274 275 274 274 273 272 272 271 271 270 266 257 250 246 243 243 243 240 235 232 231 232 233 233 234 235 235 234 234 233 231 231 233 235 237 239 242 244 245 246 248 251 254 257 259 263 266 268 269 270 270 271
306 305 305 304 297 295 297 298 297 293 282 263 240 239 251 249 248 250 251 254 260 266 269 272 273 274 275 274 275 276 276 275 275 275 274 274 274 272 271 271 270 270 270 264 256 251 245 240 241 242 236 230 228 227 227 228 229 232 233 233 233 234 234 232 232 234 235 236 239 241 242 243 246 249 253 256 258 260 263 266 266 267 268 269 269
305 305 304 298 294 298 301 301 303 297 261 203 197 229 251 255 259 262 262 263 268 272 276 278 279 279 280 280 280 280 280 278 277 275 274 273 272 269 268 268 269 270 269 261 255 252 244 238 238 235 228 223 223 224 223 223 225 229 230 230 231 232 233 232 233 233 232 234 237 239 242 245 249 252 255 258 260 262 264 265 265 265 266 267 267
303 303 297 289 293 300 299 300 308 275 172 175 209 246 258 264 270 270 269 276 283 283 281 281 281 282 284 284 284 284 283 281 279 276 272 268 267 266 267 268 269 269 266 261 259 252 240 234 231 225 222 221 221 221 220 221 224 228 229 229 229 230 232 232 232 232 232 234 237 240 244 247 250 253 256 259 260 262 263 262 262 262 263 265 266
301 294 280 279 293 296 285 280 219 163 162 184 227 259 276 283 285 284 288 297 299 295 292 290 290 292 292 292 290 289 286 283 280 276 270 265 263 264 265 266 267 267 265 264 260 246 232 227 223 220 221 221 219 219 220 221 223 226 228 229 229 230 231 232 232 231 232 234 236 240 244 247 250 253 256 258 259 260 261 261 261 262 263 264 267
289 263 248 266 283 266 246 215 182 178 187 217 244 272 294 297 300 309 316 314 306 302 302 299 298 298 298 297 295 291 286 282 277 273 268 265 263 262 263 264 264 265 266 264 254 238 227 223 221 221 223 220 217 219 222 221 220 223 227 228 229 229 229 229 229 229 230 233 236 240 244 246 249 252 253 255 257 259 260 261 261 263 264 266 269
250 211 210 227 207 194 195 192 186 191 214 241 264 286 293 300 319 330 324 314 308 307 305 301 301 303 306 307 304 297 287 278 272 267 264 263 261 260 260 261 262 263 261 254 240 231 226 224 223 224 224 221 219 222 225 224 221 222 225 226 226 225 224 223 224 226 228 232 236 240 243 246 247 249 251 254 257 257 258 259 260 263 266 269 273
194 179 177 175 172 169 167 169 176 197 233 260 284 295 300 322 337 328 318 312 309 307 303 300 305 311 314 316 314 305 290 275 267 264 262 261 260 258 258 260 260 255 246 235 229 227 226 227 229 227 223 221 219 222 226 225 221 220 220 221 221 221 219 219 221 224 227 231 234 238 241 243 245 248 251 253 254 255 256 258 261 266 270 272 276
169 164 158 163 167 165 162 163 171 210 249 263 278 291 305 321 324 317 313 311 308 305 303 304 311 313 313 317 319 313 297 279 269 265 262 258 255 255 257 258 250 236 228 229 230 228 227 229 229 225 222 219 216 219 224 223 217 213 214 214 215 215 215 217 221 224 226 229 231 234 238 241 244 248 250 251 253 255 258 262 266 269 272 275 278
160 156 149 156 164 169 173 177 185 216 248 267 283 300 314 318 315 311 310 308 305 304 305 308 312 313 315 322 328 324 309 293 278 268 262 255 250 250 251 244 230 222 226 233 235 231 228 226 223 221 218 214 212 216 220 215 207 205 207 207 208 210 214 217 219 220 222 225 228 232 236 240 243 246 249 252 255 260 263 267 269 271 274 277 280
156 152 145 151 164 175 186 193 203 224 252 279 299 314 323 321 316 313 314 315 312 310 311 315 318 319 322 329 334 331 321 309 290 271 259 249 242 238 231 220 216 220 226 230 230 227 224 221 219 218 214 210 212 216 213 204 199 199 199 201 205 209 212 213 213 215 219 223 227 231 235 239 242 246 250 255 259 264 267 270 272 274 277 279 282
158 154 146 152 168 184 198 209 215 231 259 281 298 309 315 321 326 329 333 334 332 329 327 327 326 323 324 329 333 331 329 321 296 259 230 223 224 216 202 202 210 217 222 224 223 221 219 216 213 209 205 205 209 210 201 194 194 195 195 199 204 205 205 206 209 213 218 222 226 231 235 239 243 248 252 257 262 266 269 271 274 276 278 281 284
160 156 152 159 174 191 207 207 194 230 275 291 324 329 322 339 349 350 347 343 341 341 336 330 326 323 322 324 325 326 332 332 300 211 184 197 206 191 184 194 204 209 212 214 212 209 204 202 202 202 200 199 201 199 194 190 190 191 194 197 197 196 198 203 208 212 217 222 227 231 235 240 245 250 255 259 263 266 269 271 274 276 279 282 283
164 161 162 172 183 192 196 178 142 285 286 329 28 7 354 9 7 357 352 347 342 338 334 329 325 322 318 316 312 311 324 336 277 186 176 179 172 157 161 177 187 190 189 184 183 190 193 193 195 196 196 195 195 193 189 186 185 187 190 190 190 193 198 203 208 213 219 223 227 231 236 241 247 252 256 260 263 265 269 272 275 279 281 282 284
167 161 170 185 192 181 161 130 352 312 312 53 50 19 357 8 5 358 357 352 342 335 333 331 326 320 316 312 299 274 268 288 172 168 166 159 145 140 145 146 143 145 146 142 144 162 181 188 188 185 182 183 183 181 179 180 184 187 187 187 190 195 199 202 208 215 219 223 228 233 238 244 249 253 256 259 263 267 271 275 279 281 282 283 287
168 158 164 176 179 162 139 105 327 350 11 19 25 53 98 23 7 0 355 351 346 342 339 336 330 323 317 311 268 208 191 175 162 161 162 161 153 151 151 145 136 132 127 122 126 139 155 167 170 169 166 164 166 171 175 181 185 186 186 189 192 195 198 204 211 215 219 225 230 236 240 245 249 253 257 262 266 272 276 279 280 281 283 287 290
165 154 144 150 170 164 148 204 313 24 12 357 5 39 87 55 12 1 353 355 359 355 347 345 344 336 327 322 181 175 173 169 166 162 157 154 156 157 157 153 150 146 135 123 122 133 144 151 155 157 158 160 164 170 175 179 183 186 188 191 192 195 201 209 213 216 221 227 232 236 242 247 251 256 262 268 273 277 280 280 281 284 287 290 292
158 150 142 156 181 159 136 228 267 34 19 0 9 21 13 350 341 348 358 12 14 7 2 6 12 12 16 67 139 163 166 165 164 163 157 149 150 153 157 154 150 146 139 128 125 132 142 153 157 155 155 161 167 172 175 179 184 188 190 192 194 200 207 210 212 217 222 228 233 239 245 251 256 264 271 275 279 281 281 283 285 288 291 292 293
147 150 147 155 170 151 146 256 262 45 25 9 14 15 2 346 339 349 9 25 25 18 16 21 26 32 48 78 111 142 153 159 160 158 157 157 155 156 159 155 145 137 129 122 117 119 129 147 159 160 162 166 171 175 180 184 187 190 193 196 200 205 207 208 212 219 225 231 238 245 251 258 267 275 279 280 282 282 283 287 289 290 291 293 294
133 147 145 143 154 161 282 300 31 39 18 8 15 13 358 348 350 360 11 20 22 20 20 24 30 37 48 69 97 121 128 139 157 161 162 162 160 158 153 136 121 116 110 99 92 101 116 145 166 173 176 178 179 182 186 188 190 193 196 199 202 205 207 211 216 222 228 236 243 251 261 272 278 281 282 282 283 284 286 289 290 290 292 294 294
112 139 144 144 158 215 303 342 19 27 12 8 15 8 358 1 8 10 15 18 15 11 13 22 32 37 43 54 73 117 144 143 152 167 174 169 156 143 132 119 115 128 137 144 144 124 129 160 177 185 193 195 191 190 191 191 192 192 194 197 200 204 209 213 218 224 232 242 254 265 277 281 281 281 282 282 284 287 289 290 291 292 294 295 295
93 127 142 149 169 245 301 339 9 14 8 10 13 5 5 15 16 13 19 21 11 2 6 21 32 37 40 46 52 67 143 168 169 172 177 172 159 150 152 166 184 185 181 184 188 176 162 168 176 183 193 198 196 192 191 190 191 192 195 199 201 205 210 214 219 228 239 255 269 276 280 280 280 281 283 285 288 290 290 291 293 295 296 297 298
74 96 124 154 205 270 313 352 9 6 5 9 6 1 11 24 20 16 25 23 12 7 13 23 30 34 37 40 42 46 73 159 176 174 169 167 168 176 197 212 214 210 204 202 203 192 171 166 170 178 186 190 190 188 187 187 189 193 197 199 200 205 211 216 223 238 255 269 276 276 278 280 281 284 286 288 290 291 292 294 296 297 299 302 303
59 67 82 128 268 294 322 349 353 354 2 4 355 358 18 32 24 24 28 20 13 17 23 22 23 28 32 35 37 40 49 102 166 173 174 178 188 207 224 227 223 218 214 210 207 190 166 164 168 175 180 182 181 180 181 182 186 190 193 194 198 206 214 223 238 258 269 274 275 276 279 282 284 286 288 291 292 294 296 298 299 301 304 306 308
36 36 40 21 299 298 315 330 336 345 356 355 352 8 42 46 31 30 30 21 16 20 22 20 19 20 23 27 29 33 38 49 134 172 179 189 201 211 220 224 221 216 214 214 212 188 163 162 166 170 172 174 174 174 176 179 182 184 188 193 201 212 224 239 256 267 271 273 274 278 282 284 286 289 291 294 296 298 300 301 303 306 309 310 311
18 10 2 345 308 296 309 325 341 353 355 352 6 50 74 50 30 30 27 20 18 18 15 15 16 16 17 20 21 22 29 36 58 177 186 197 207 211 214 216 216 214 216 228 242 220 159 156 160 163 164 166 169 173 177 179 180 182 188 198 211 223 236 250 260 265 270 274 276 281 284 286 289 293 295 298 300 301 303 305 308 310 312 313 313
17 11 5 355 339 332 334 348 12 15 6 9 44 77 71 43 34 32 23 14 13 12 8 7 8 7 10 14 14 13 18 26 31 181 201 214 223 229 227 223 224 230 234 244 264 246 150 155 159 160 162 165 169 173 178 179 181 186 194 207 221 231 241 253 261 267 273 277 280 284 287 290 293 297 299 301 303 304 306 309 312 313 314 313 313
24 23 20 14 7 13 41 77 71 46 36 46 68 72 55 44 41 35 24 12 5 1 359 360 360 359 0 5 7 7 9 17 31 65 187 213 229 245 252 244 239 243 244 255 270 157 152 159 162 163 166 170 172 175 179 181 184 193 205 216 228 238 248 258 265 271 277 280 282 286 290 293 297 300 301 302 304 307 310 312 313 314 314 314 314
26 28 28 29 38 58 80 92 81 60 49 53 64 67 58 47 38 28 16 5 359 356 354 351 351 351 353 358 1 2 3 13 37 74 118 143 164 214 234 221 198 194 195 189 160 155 159 163 165 167 172 176 177 181 186 188 192 204 217 228 239 249 257 265 269 274 278 281 285 289 293 296 299 300 302 304 307 310 312 313 313 313 314 314 315
31 40 45 51 62 75 83 78 59 42 33 36 53 61 47 28 19 10 1 354 352 351 348 345 344 346 351 355 356 356 358 16 57 95 116 116 107 106 116 119 117 122 129 134 145 155 159 162 163 166 170 173 176 183 190 192 200 217 229 241 251 256 261 266 270 275 280 284 289 293 296 298 300 301 304 307 309 310 311 311 312 313 313 314 315
43 52 59 67 75 77 73 58 34 14 4 11 31 40 26 9 359 352 349 349 347 343 343 345 348 352 355 355 353 353 359 43 101 115 121 119 114 115 121 123 123 123 125 130 138 145 149 152 156 160 163 167 171 179 185 192 209 226 237 249 257 260 264 270 275 280 285 289 292 295 297 299 301 304 306 308 309 309 310 310 311 312 313 314 315
53 57 66 77 77 68 56 41 29 17 8 10 22 35 27 10 356 348 345 343 340 341 347 353 358 2 360 355 354 0 25 94 121 124 122 117 117 120 123 122 121 120 120 123 127 131 136 142 146 151 158 165 172 181 192 206 223 235 245 256 263 267 272 276 281 285 289 292 294 296 298 301 303 305 307 308 308 308 309 310 311 312 313 315 316
52 55 59 62 57 51 44 37 36 32 24 24 34 36 16 1 355 351 345 339 339 349 0 4 4 5 2 359 2 24 70 102 115 119 117 114 116 118 117 115 115 115 117 119 122 125 130 137 143 151 162 176 188 200 213 225 235 246 256 264 269 273 278 282 285 288 290 292 295 297 300 303 305 306 306 307 307 307 308 310 311 313 314 315 316
47 48 41 29 28 35 40 46 55 56 44 36 29 14 2 358 354 350 347 347 355 8 11 7 7 8 6 6 20 53 82 100 109 113 112 112 115 116 115 114 116 117 119 121 124 128 133 142 150 160 172 188 204 218 231 240 249 258 265 270 274 279 282 284 286 289 290 293 297 300 302 304 305 305 305 306 306 307 309 310 312 314 314 314 314
31 44 47 41 35 39 54 63 65 50 27 11 353 347 351 354 350 348 353 2 16 20 12 10 12 13 13 23 49 72 89 103 109 111 112 114 115 116 116 117 118 120 122 126 131 137 143 150 156 165 179 195 208 222 236 246 254 262 268 272 276 280 281 284 287 290 294 297 300 301 302 303 303 304 304 305 306 308 310 312 313 313 312 312 312
335 357 38 44 35 34 56 56 348 327 327 327 326 333 342 345 344 347 354 360 4 14 20 18 17 19 30 52 74 89 101 110 113 114 116 118 118 117 118 120 122 125 129 133 137 143 148 152 159 173 190 206 220 234 246 254 259 266 270 274 277 280 284 288 292 295 297 299 300 301 301 302 302 303 305 307 309 311 312 312 311 311 310 310 311
Height
2862 2860 2858 2856 2854 2853 2853 2852 2851 2850 2849 2847 2846 2845 2843 2842 2841 2839 2838 2838 2837 2837 2837 2838 2838 2839 2840 2841 2843 2844 2845 2846 2847 2848 2849 2851 2853 2853 2854 2855 2855 2856 2858 2859 2861 2863 2866 2869 2870 2872 2873 2874 2877 2880 2883 2886 2887 2889 2892 2894 2895 2897 2899 2901 2902 2903 2904 2906 2908 2912 2916 2918 2919 2921 2922 2923 2924 2926 2927 2929 2929 2929 2930 2931 2932
2858 2856 2853 2850 2848 2847 2847 2846 2845 2845 2844 2842 2841 2840 2839 2837 2836 2835 2834 2833 2833 2833 2833 2834 2834 2835 2835 2836 2837 2838 2839 2840 2841 2842 2844 2845 2846 2847 2848 2848 2848 2850 2851 2852 2854 2856 2859 2862 2864 2865 2866 2868 2870 2873 2875 2878 2880 2882 2885 2887 2888 2891 2893 2895 2897 2898 2899 2901 2903 2906 2910 2913 2914 2915 2916 2918 2919 2921 2922 2923 2923 2924 2924 2925 2926
2854 2851 2848 2846 2844 2842 2841 2840 2840 2840 2838 2837 2836 2835 2834 2833 2832 2831 2830 2830 2830 2830 2830 2830 2830 2831 2831 2831 2832 2833 2833 2834 2835 2836 2838 2840 2840 2841 2841 2841 2842 2843 2844 2846 2848 2849 2851 2854 2857 2859 2859 2860 2863 2865 2868 2871 2873 2875 2877 2880 2882 2884 2887 2889 2891 2893 2894 2896 2898 2901 2904 2907 2909 2910 2911 2912 2914 2916 2917 2918 2918 2918 2918 2919 2920
2848 2845 2842 2840 2838 2836 2835 2834 2834 2834 2833 2832 2831 2830 2830 2829 2828 2827 2827 2826 2827 2827 2827 2827 2827 2826 2826 2826 2827 2828 2828 2829 2829 2830 2831 2832 2833 2834 2834 2835 2835 2837 2837 2839 2841 2843 2844 2846 2850 2852 2852 2853 2856 2858 2861 2864 2866 2868 2870 2873 2875 2878 2880 2882 2884 2887 2889 2891 2893 2895 2898 2902 2903 2904 2906 2907 2909 2910 2912 2912 2912 2912 2912 2913 2914
2841 2838 2835 2833 2831 2830 2829 2828 2828 2828 2827 2825 2824 2824 2824 2823 2823 2823 2823 2822 2822 2823 2823 2823 2822 2822 2822 2821 2822 2822 2822 2823 2823 2823 2824 2825 2826 2826 2827 2827 2828 2830 2831 2831 2833 2835 2836 2839 2842 2844 2844 2846 2848 2851 2854 2857 2859 2861 2864 2866 2869 2872 2874 2875 2877 2880 2883 2885 2887 2889 2892 2895 2897 2898 2900 2902 2903 2905 2906 2906 2906 2906 2907 2907 2908
2835 2831 2828 2826 2824 2823 2823 2822 2822 2821 2820 2818 2817 2817 2817 2817 2818 2818 2818 2818 2817 2817 2817 2817 2817 2817 2816 2816 2817 2817 2818 2818 2818 2818 2818 2818 2818 2819 2820 2820 2821 2822 2823 2824 2826 2827 2828 2831 2834 2836 2837 2839 2841 2844 2847 2850 2852 2855 2857 2859 2863 2866 2867 2869 2871 2874 2877 2879 2881 2883 2885 2888 2890 2893 2895 2896 2898 2899 2899 2899 2900 2901 2901 2902 2902
2828 2824 2821 2819 2818 2817 2816 2816 2815 2813 2812 2811 2811 2811 2811 2811 2811 2811 2812 2812 2811 2811 2812 2812 2812 2811 2811 2811 2811 2812 2812 2812 2812 2813 2812 2812 2812 2812 2813 2814 2814 2814 2816 2817 2818 2819 2821 2823 2826 2828 2830 2832 2835 2837 2840 2842 2845 2848 2850 2853 2856 2859 2861 2863 2866 2868 2870 2873 2875 2877 2879 2881 2885 2887 2889 2891 2892 2892 2893 2894 2894 2895 2896 2896 2897
2821 2818 2814 2811 2810 2810 2810 2809 2808 2806 2805 2805 2805 2805 2805 2805 2804 2804 2805 2805 2805 2805 2806 2806 2806 2806 2806 2806 2806 2806 2806 2806 2806 2807 2807 2807 2807 2807 2807 2807 2807 2807 2808 2810 2811 2812 2813 2816 2817 2819 2823 2826 2829 2830 2832 2835 2837 2840 2843 2846 2849 2852 2854 2857 2859 2862 2864 2867 2869 2871 2873 2876 2879 2882 2884 2886 2886 2887 2888 2888 2889 2889 2891 2892 2892
2815 2812 2809 2806 2804 2803 2803 2802 2801 2800 2800 2799 2799 2799 2799 2798 2797 2797 2797 2798 2798 2799 2800 2800 2800 2800 2801 2801 2801 2800 2800 2800 2801 2802 2802 2802 2802 2802 2802 2802 2801 2801 2802 2803 2805 2806 2807 2808 2810 2812 2816 2820 2822 2824 2825 2828 2830 2833 2837 2839 2843 2845 2848 2850 2853 2856 2859 2860 2862 2864 2867 2870 2873 2877 2880 2881 2882 2882 2883 2883 2884 2885 2887 2888 2888
2809 2807 2805 2802 2800 2798 2797 2796 2795 2795 2794 2794 2793 2793 2792 2791 2789 2789 2789 2790 2791 2793 2794 2795 2795 2795 2796 2796 2796 2795 2795 2795 2796 2797 2797 2797 2797 2796 2796 2796 2796 2796 2796 2797 2798 2799 2800 2801 2804 2806 2809 2812 2815 2818 2819 2821 2824 2827 2830 2833 2836 2839 2842 2844 2847 2850 2852 2854 2857 2859 2862 2865 2868 2871 2875 2876 2877 2877 2877 2878 2880 2881 2882 2883 2883
2804 2802 2800 2797 2795 2793 2792 2790 2789 2788 2788 2787 2786 2786 2785 2783 2782 2782 2782 2783 2785 2787 2789 2790 2790 2791 2791 2792 2792 2792 2792 2792 2793 2793 2793 2793 2792 2791 2790 2790 2790 2790 2790 2791 2792 2793 2794 2795 2797 2799 2802 2804 2808 2812 2814 2815 2818 2821 2824 2827 2830 2833 2835 2838 2841 2843 2846 2848 2852 2854 2857 2860 2862 2866 2869 2870 2871 2871 2872 2873 2875 2875 2876 2877 2877
2798 2797 2795 2793 2791 2788 2786 2785 2783 2782 2781 2780 2779 2778 2778 2777 2777 2777 2777 2778 2780 2782 2784 2785 2786 2786 2786 2787 2787 2788 2788 2789 2789 2789 2789 2788 2787 2786 2785 2785 2784 2784 2785 2785 2786 2787 2788 2790 2791 2793 2795 2798 2802 2805 2808 2810 2812 2815 2818 2821 2824 2827 2830 2833 2835 2838 2840 2843 2846 2849 2852 2855 2858 2860 2863 2864 2865 2866 2866 2868 2870 2870 2870 2870 2870
2792 2791 2789 2788 2786 2783 2781 2779 2777 2775 2774 2773 2773 2772 2772 2772 2773 2773 2774 2775 2777 2778 2780 2781 2781 2782 2782 2782 2782 2783 2783 2784 2785 2785 2784 2784 2783 2781 2780 2779 2778 2778 2779 2779 2780 2781 2782 2784 2785 2787 2789 2793 2795 2798 2802 2804 2806 2809 2812 2815 2818 2821 2824 2827 2830 2832 2835 2838 2841 2843 2847 2850 2853 2855 2857 2858 2859 2860 2861 2863 2864 2864 2864 2864 2863
2787 2785 2784 2783 2781 2778 2776 2773 2772 2770 2769 2768 2768 2768 2768 2769 2769 2770 2771 2773 2774 2775 2776 2777 2777 2778 2778 2778 2778 2778 2778 2779 2779 2780 2779 2778 2778 2777 2776 2775 2773 2772 2773 2773 2774 2775 2776 2778 2780 2781 2784 2787 2790 2792 2796 2798 2801 2803 2807 2810 2813 2816 2819 2821 2824 2826 2830 2833 2837 2839 2842 2846 2848 2850 2851 2853 2854 2855 2857 2858 2858 2858 2857 2857 2857
2782 2780 2779 2778 2776 2773 2771 2769 2768 2766 2765 2764 2764 2765 2766 2766 2767 2768 2769 2771 2772 2773 2773 2773 2774 2774 2774 2774 2773 2773 2774 2775 2774 2774 2774 2773 2773 2772 2771 2770 2768 2766 2767 2767 2768 2769 2771 2772 2774 2776 2778 2781 2784 2787 2790 2793 2795 2798 2801 2805 2808 2811 2814 2816 2819 2822 2826 2830 2834 2836 2839 2842 2843 2845 2846 2848 2850 2851 2851 2852 2852 2852 2851 2851 2852
2777 2775 2774 2773 2772 2769 2767 2765 2764 2763 2762 2761 2762 2763 2764 2765 2766 2767 2768 2768 2769 2769 2770 2770 2770 2770 2770 2770 2769 2769 2770 2770 2769 2769 2769 2768 2768 2767 2765 2764 2762 2761 2761 2762 2763 2764 2765 2767 2768 2770 2773 2776 2779 2781 2784 2787 2790 2793 2797 2800 2804 2807 2809 2812 2815 2819 2823 2827 2830 2832 2835 2837 2838 2839 2841 2844 2845 2846 2846 2846 2847 2847 2847 2847 2848
2772 2770 2769 2769 2767 2765 2764 2762 2761 2760 2759 2760 2761 2763 2764 2765 2765 2766 2766 2766 2766 2767 2767 2767 2767 2766 2766 2766 2766 2765 2765 2765 2765 2764 2764 2763 2762 2761 2760 2758 2756 2755 2755 2756 2757 2759 2760 2761 2763 2765 2767 2770 2773 2776 2778 2782 2785 2788 2792 2796 2799 2802 2805 2808 2812 2816 2819 2822 2825 2828 2829 2831 2832 2835 2837 2839 2840 2841 2841 2841 2842 2842 2842 2843 2843
2767 2766 2765 2765 2764 2762 2761 2760 2759 2758 2758 2759 2761 2763 2763 2764 2764 2764 2764 2764 2764 2764 2764 2764 2764 2763 2763 2762 2762 2761 2760 2760 2759 2759 2758 2757 2756 2755 2753 2752 2750 2750 2750 2751 2753 2754 2755 2756 2758 2760 2762 2766 2768 2770 2773 2776 2780 2783 2787 2791 2794 2798 2801 2805 2808 2812 2815 2818 2821 2822 2824 2826 2828 2830 2832 2834 2835 2836 2836 2837 2838 2838 2838 2838 2839
2762 2762 2762 2761 2761 2760 2759 2759 2758 2758 2758 2759 2761 2762 2762 2762 2762 2762 2762 2762 2762 2762 2762 2761 2761 2760 2759 2758 2757 2756 2755 2754 2753 2753 2752 2751 2750 2749 2747 2745 2745 2745 2746 2747 2748 2749 2750 2751 2753 2756 2759 2762 2764 2766 2769 2772 2776 2780 2783 2787 2791 2794 2798 2802 2805 2808 2811 2814 2816 2818 2820 2822 2824 2825 2828 2829 2830 2831 2832 2833 2834 2834 2834 2834 2834
2758 2758 2758 2758 2758 2758 2758 2757 2757 2758 2758 2759 2760 2760 2760 2761 2761 2761 2760 2760 2760 2760 2759 2758 2757 2756 2755 2754 2753 2751 2749 2748 2747 2746 2746 2745 2744 2743 2741 2740 2741 2742 2743 2743 2744 2744 2746 2748 2750 2753 2756 2758 2760 2763 2765 2768 2772 2776 2780 2783 2788 2792 2796 2800 2803 2805 2807 2809 2811 2813 2815 2817 2820 2822 2824 2825 2825 2827 2828 2829 2829 2830 2830 2830 2829
2754 2755 2755 2756 2756 2756 2756 2756 2757 2758 2758 2759 2759 2759 2759 2759 2759 2759 2758 2758 2758 2757 2756 2755 2754 2753 2752 2750 2748 2746 2744 2742 2740 2740 2740 2739 2739 2738 2737 2737 2738 2739 2739 2740 2740 2741 2743 2745 2748 2751 2753 2755 2757 2760 2762 2765 2770 2773 2777 2781 2785 2789 2793 2797 2799 2800 2802 2804 2806 2809 2811 2814 2816 2818 2819 2820 2822 2823 2824 2825 2825 2825 2825 2825 2825
2750 2752 2753 2754 2754 2755 2755 2756 2756 2757 2757 2757 2758 2758 2758 2757 2757 2757 2757 2756 2756 2755 2754 2752 2751 2750 2749 2747 2744 2741 2738 2736 2734 2734 2734 2734 2734 2734 2733 2734 2736 2736 2736 2737 2738 2739 2741 2744 2747 2749 2751 2753 2755 2758 2760 2763 2767 2771 2774 2778 2782 2786 2789 2792 2794 2796 2798 2800 2803 2805 2808 2811 2813 2814 2816 2817 2818 2819 2820 2821 2821 2821 2821 2820 2820
2748 2749 2751 2752 2753 2754 2754 2755 2756 2756 2757 2757 2757 2757 2756 2756 2755 2756 2756 2755 2753 2752 2751 2750 2749 2747 2745 2742 2739 2735 2732 2731 2730 2730 2730 2730 2730 2731 2731 2732 2733 2734 2734 2735 2736 2738 2740 2743 2745 2746 2748 2750 2753 2756 2758 2760 2765 2769 2772 2775 2778 2782 2786 2788 2790 2792 2794 2797 2800 2803 2805 2808 2809 2811 2812 2813 2814 2815 2816 2817 2817 2817 2816 2816 2816
2746 2748 2749 2750 2752 2753 2754 2754 2755 2756 2756 2756 2756 2756 2755 2755 2754 2754 2754 2753 2751 2750 2749 2747 2746 2743 2741 2738 2734 2730 2727 2727 2727 2726 2726 2726 2727 2728 2728 2729 2730 2731 2732 2734 2735 2737 2738 2740 2742 2744 2746 2748 2751 2753 2755 2758 2763 2767 2769 2772 2775 2779 2782 2784 2787 2789 2792 2795 2798 2801 2803 2804 2806 2807 2809 2810 2811 2811 2812 2812 2813 2812 2812 2812 2812
2745 2747 2748 2750 2751 2752 2753 2753 2754 2755 2755 2755 2755 2755 2755 2754 2753 2753 2752 2751 2749 2747 2746 2744 2743 2740 2738 2734 2731 2727 2725 2724 2723 2723 2722 2723 2723 2725 2726 2727 2728 2730 2731 2732 2733 2735 2736 2738 2740 2742 2744 2747 2749 2751 2753 2757 2761 2763 2766 2769 2773 2777 2779 2782 2785 2788 2791 2793 2796 2798 2800 2802 2803 2804 2805 2806 2807 2807 2807 2808 2808 2808 2808 2808 2808
2744 2746 2748 2749 2750 2751 2752 2752 2753 2754 2754 2754 2754 2754 2754 2753 2752 2751 2750 2749 2747 2745 2743 2742 2740 2738 2735 2732 2729 2726 2723 2721 2720 2720 2720 2720 2721 2722 2724 2726 2727 2728 2730 2731 2732 2733 2735 2737 2739 2741 2743 2745 2747 2749 2752 2756 2758 2761 2764 2768 2771 2774 2777 2780 2783 2786 2789 2791 2794 2796 2797 2799 2800 2801 2802 2802 2803 2803 2803 2804 2804 2804 2805 2804 2803
2744 2746 2748 2749 2750 2751 2751 2752 2752 2753 2753 2753 2753 2753 2753 2752 2751 2750 2748 2747 2745 2744 2742 2740 2738 2736 2733 2730 2727 2725 2722 2720 2719 2718 2718 2718 2719 2722 2724 2725 2726 2727 2728 2729 2730 2732 2734 2736 2738 2740 2742 2744 2746 2749 2752 2755 2756 2759 2763 2766 2769 2772 2776 2779 2782 2784 2787 2789 2791 2793 2794 2796 2797 2798 2798 2799 2799 2800 2800 2800 2801 2801 2801 2800 2800
2745 2746 2748 2749 2749 2750 2751 2751 2752 2752 2752 2753 2753 2752 2752 2751 2750 2749 2748 2745 2743 2742 2740 2738 2736 2734 2731 2728 2726 2724 2722 2720 2719 2718 2718 2718 2720 2722 2723 2725 2726 2726 2727 2728 2730 2731 2733 2735 2737 2738 2740 2742 2745 2748 2751 2753 2755 2758 2761 2764 2768 2772 2775 2777 2780 2783 2785 2787 2789 2790 2792 2793 2794 2794 2795 2796 2796 2797 2797 2797 2797 2797 2797 2796 2796
2746 2747 2748 2749 2749 2750 2750 2751 2752 2752 2752 2752 2752 2751 2751 2750 2750 2749 2747 2745 2743 2741 2739 2736 2734 2731 2728 2726 2725 2724 2723 2721 2720 2720 2720 2720 2721 2723 2724 2725 2726 2726 2727 2728 2729 2731 2733 2734 2736 2738 2740 2742 2745 2748 2750 2752 2755 2758 2761 2765 2768 2771 2774 2776 2779 2781 2783 2785 2786 2788 2789 2790 2791 2792 2793 2793 2794 2794 2794 2794 2794 2793 2793 2792 2791
2746 2747 2748 2749 2750 2750 2751 2751 2751 2752 2752 2751 2751 2751 2750 2750 2749 2748 2747 2745 2742 2740 2737 2734 2731 2727 2725 2723 2722 2722 2722 2722 2721 2721 2722 2722 2723 2724 2725 2726 2727 2727 2728 2729 2730 2731 2733 2735 2737 2739 2741 2743 2745 2748 2750 2753 2756 2758 2761 2765 2767 2770 2773 2775 2777 2779 2781 2783 2784 2785 2787 2788 2789 2790 2791 2791 2791 2791 2791 2790 2790 2789 2789 2788 2787
2747 2748 2749 2749 2750 2751 2751 2751 2751 2751 2751 2751 2751 2751 2751 2750 2750 2748 2746 2744 2742 2739 2735 2732 2728 2724 2721 2720 2720 2720 2721 2722 2722 2723 2723 2724 2725 2726 2727 2728 2729 2730 2730 2731 2732 2733 2734 2736 2738 2740 2742 2744 2746 2749 2751 2753 2756 2759 2762 2764 2767 2769 2772 2774 2775 2777 2779 2781 2782 2784 2785 2786 2787 2788 2788 2788 2788 2788 2787 2787 2787 2786 2785 2784 2783
2748 2749 2749 2750 2751 2751 2751 2752 2752 2752 2752 2751 2750 2750 2750 2750 2749 2748 2746 2744 2741 2738 2733 2729 2725 2722 2719 2719 2719 2720 2721 2722 2723 2724 2724 2725 2726 2727 2729 2730 2730 2731 2732 2733 2733 2734 2736 2737 2739 2741 2743 2744 2747 2749 2751 2754 2757 2759 2761 2764 2766 2768 2770 2772 2774 2776 2778 2780 2781 2783 2784 2784 2785 2785 2785 2785 2785 2785 2784 2784 2784 2783 2782 2781 2780
2748 2749 2750 2750 2751 2751 2752 2752 2752 2752 2752 2751 2750 2749 2749 2748 2748 2747 2746 2744 2741 2738 2733 2729 2725 2721 2719 2719 2719 2720 2721 2722 2723 2725 2726 2726 2727 2729 2730 2731 2732 2732 2733 2734 2734 2736 2737 2738 2739 2741 2743 2744 2746 2748 2751 2754 2756 2758 2761 2763 2765 2768 2770 2772 2774 2776 2777 2779 2780 2781 2781 2782 2782 2782 2782 2782 2782 2782 2782 2781 2781 2779 2779 2778 2776
2749 2750 2751 2751 2752 2752 2753 2753 2753 2752 2752 2751 2750 2749 2749 2748 2747 2746 2745 2743 2741 2738 2734 2730 2726 2723 2721 2721 2721 2722 2723 2724 2724 2726 2727 2728 2728 2730 2731 2732 2732 2733 2733 2733 2734 2735 2736 2738 2739 2741 2742 2744 2746 2748 2751 2753 2756 2758 2761 2763 2765 2767 2769 2771 2773 2775 2776 2777 2778 2778 2779 2779 2779 2779 2779 2779 2780 2780 2779 2778 2778 2777 2776 2774 2773
2750 2751 2752 2752 2752 2753 2753 2753 2753 2753 2752 2751 2750 2749 2749 2748 2747 2745 2743 2741 2740 2738 2736 2732 2729 2726 2724 2723 2723 2724 2725 2725 2726 2727 2728 2729 2730 2731 2732 2733 2733 2733 2733 2733 2734 2735 2736 2738 2739 2741 2742 2744 2746 2749 2751 2754 2756 2759 2761 2763 2765 2767 2769 2771 2773 2774 2775 2775 2776 2776 2776 2776 2776 2777 2777 2778 2778 2777 2777 2776 2775 2774 2773 2771 2770
2751 2752 2753 2753 2753 2753 2753 2753 2753 2752 2752 2751 2750 2749 2748 2748 2747 2745 2743 2742 2741 2740 2738 2735 2732 2730 2728 2727 2726 2726 2726 2727 2728 2728 2729 2731 2732 2732 2733 2733 2734 2734 2735 2735 2736 2738 2739 2740 2741 2742 2743 2745 2747 2749 2752 2754 2757 2759 2761 2763 2765 2767 2769 2770 2771 2772 2772 2773 2773 2773 2774 2774 2775 2775 2776 2776 2775 2775 2774 2773 2772 2771 2769 2768 2767
2752 2753 2753 2754 2754 2754 2754 2754 2753 2753 2752 2751 2750 2749 2749 2748 2747 2746 2744 2743 2742 2741 2740 2738 2735 2733 2731 2730 2729 2728 2728 2728 2729 2730 2731 2732 2733 2733 2734 2734 2735 2735 2736 2737 2738 2740 2741 2742 2742 2743 2745 2746 2748 2750 2753 2755 2757 2760 2762 2763 2765 2767 2768 2769 2769 2770 2770 2771 2771 2772 2773 2773 2774 2774 2774 2773 2773 2772 2771 2770 2769 2768 2766 2765 2763
2753 2754 2754 2754 2754 2754 2754 2754 2753 2753 2752 2751 2751 2750 2749 2748 2748 2746 2745 2744 2743 2742 2740 2739 2737 2735 2733 2732 2731 2730 2730 2729 2730 2731 2733 2734 2734 2734 2734 2735 2735 2736 2737 2739 2740 2741 2741 2742 2743 2744 2745 2747 2749 2751 2754 2756 2758 2760 2762 2763 2764 2765 2766 2767 2767 2768 2769 2769 2770 2771 2771 2772 2772 2772 2772 2771 2771 2770 2769 2768 2766 2765 2763 2762 2760
2754 2754 2754 2754 2754 2754 2754 2754 2753 2753 2753 2752 2751 2750 2749 2749 2748 2747 2746 2745 2744 2743 2741 2739 2738 2736 2734 2733 2732 2732 2731 2731 2731 2732 2733 2734 2734 2734 2735 2735 2735 2737 2738 2738 2739 2740 2741 2742 2743 2744 2746 2748 2750 2752 2754 2756 2758 2759 2760 2762 2763 2764 2765 2765 2766 2767 2768 2768 2769 2770 2770 2770 2770 2770 2770 2769 2768 2767 2766 2765 2764 2762 2760 2758 2756
2754 2754 2755 2755 2754 2754 2754 2754 2754 2753 2753 2752 2751 2751 2750 2749 2749 2748 2747 2746 2745 2743 2741 2740 2738 2737 2736 2734 2733 2733 2732 2732 2732 2732 2732 2733 2733 2733 2734 2734 2735 2736 2737 2737 2738 2739 2740 2742 2743 2744 2746 2748 2750 2751 2753 2755 2756 2757 2759 2760 2761 2762 2763 2764 2765 2766 2767 2767 2768 2768 2768 2768 2768 2768 2767 2767 2766 2765 2764 2762 2760 2759 2756 2754 2752
2755 2755 2754 2754 2754 2754 2754 2754 2754 2753 2753 2752 2752 2751 2751 2750 2749 2748 2747 2747 2745 2744 2742 2741 2739 2738 2737 2735 2734 2733 2732 2732 2732 2732 2732 2732 2732 2732 2733 2734 2735 2736 2737 2737 2738 2739 2740 2741 2743 2744 2746 2748 2749 2751 2752 2754 2755 2757 2758 2759 2761 2762 2763 2764 2764 2765 2766 2766 2767 2767 2767 2767 2766 2766 2765 2764 2763 2762 2760 2759 2757 2755 2753 2750 2748
2756 2755 2755 2754 2754 2754 2754 2754 2754 2754 2753 2753 2752 2752 2751 2751 2750 2749 2748 2747 2746 2745 2743 2742 2740 2739 2738 2736 2735 2734 2733 2732 2731 2731 2731 2731 2732 2732 2733 2734 2735 2736 2737 2738 2738 2740 2741 2741 2743 2744 2746 2748 2750 2751 2752 2754 2755 2756 2758 2759 2760 2761 2762 2763 2763 2764 2765 2765 2765 2765 2765 2765 2764 2763 2762 2761 2760 2759 2757 2755 2753 2751 2749 2747 2745
2757 2756 2755 2754 2754 2754 2755 2755 2755 2755 2754 2753 2753 2752 2752 2751 2750 2749 2749 2748 2747 2746 2744 2743 2741 2740 2738 2737 2735 2734 2733 2731 2730 2730 2730 2731 2731 2732 2733 2734 2735 2736 2737 2738 2739 2740 2741 2742 2743 2745 2747 2748 2750 2751 2752 2754 2755 2756 2758 2759 2760 2760 2761 2762 2763 2763 2764 2764 2764 2764 2763 2763 2762 2761 2760 2758 2757 2755 2753 2751 2749 2747 2745 2743 2741
2758 2757 2756 2755 2755 2755 2755 2755 2755 2755 2755 2754 2754 2753 2752 2752 2751 2750 2750 2748 2747 2746 2744 2743 2741 2740 2739 2737 2735 2734 2732 2731 2730 2730 2730 2731 2731 2732 2733 2734 2735 2736 2737 2738 2739 2740 2741 2743 2744 2746 2747 2749 2750 2751 2752 2754 2755 2756 2757 2758 2759 2760 2761 2761 2762 2762 2762 2762 2762 2762 2761 2760 2759 2758 2757 2755 2753 2752 2750 2748 2746 2744 2742 2740 2738
2759 2758 2757 2757 2756 2756 2756 2756 2756 2756 2755 2755 2754 2754 2753 2752 2752 2751 2750 2748 2747 2746 2744 2742 2741 2739 2738 2736 2735 2733 2732 2731 2730 2730 2730 2731 2732 2732 2733 2734 2735 2736 2737 2739 2740 2741 2742 2744 2745 2747 2748 2750 2751 2752 2753 2754 2755 2756 2757 2758 2758 2759 2760 2760 2760 2761 2761 2760 2760 2760 2759 2758 2756 2755 2754 2752 2750 2748 2746 2745 2743 2741 2739 2737 2734
2760 2759 2759 2758 2758 2757 2757 2757 2757 2756 2756 2755 2755 2754 2754 2753 2753 2751 2750 2748 2747 2745 2744 2742 2740 2739 2737 2736 2734 2733 2731 2731 2730 2730 2731 2732 2732 2733 2733 2734 2735 2737 2738 2740 2741 2742 2744 2745 2747 2748 2749 2750 2751 2752 2753 2754 2755 2756 2757 2757 2758 2758 2759 2759 2759 2759 2759 2758 2758 2757 2756 2755 2753 2752 2750 2749 2747 2745 2743 2741 2739 2737 2735 2733 2731
2761 2761 2760 2759 2759 2759 2758 2758 2757 2757 2756 2756 2755 2755 2755 2754 2753 2752 2750 2748 2747 2745 2744 2742 2740 2739 2737 2736 2734 2732 2731 2731 2731 2731 2732 2733 2733 2734 2735 2735 2737 2738 2740 2741 2743 2744 2745 2746 2748 2749 2750 2751 2751 2752 2753 2754 2755 2755 2756 2757 2757 2757 2758 2758 2758 2757 2757 2756 2755 2754 2753 2752 2750 2749 2747 2746 2744 2742 2740 2738 2736 2734 2732 2730 2728
2762 2762 2761 2761 2760 2760 2759 2758 2758 2757 2757 2757 2756 2756 2756 2755 2753 2752 2750 2748 2747 2745 2744 2742 2741 2739 2738 2736 2734 2733 2732 2732 2732 2733 2733 2734 2735 2736 2736 2737 2739 2740 2741 2743 2744 2745 2746 2747 2748 2749 2750 2751 2752 2752 2753 2754 2754 2755 2756 2756 2756 2756 2756 2756 2756 2755 2754 2753 2752 2751 2750 2749 2747 2746 2744 2742 2741 2739 2737 2735 2733 2731 2729 2727 2725
2763 2762 2762 2761 2761 2760 2760 2759 2759 2758 2758 2758 2757 2757 2756 2755 2753 2752 2750 2748 2747 2746 2745 2743 2742 2740 2738 2736 2735 2734 2734 2734 2734 2734 2735 2736 2737 2738 2738 2739 2741 2742 2743 2744 2745 2746 2747 2748 2749 2750 2751 2751 2752 2753 2753 2754 2754 2755 2755 2755 2755 2755 2755 2754 2754 2753 2752 2751 2750 2749 2747 2746 2745 2743 2741 2739 2738 2736 2734 2732 2730 2728 2726 2723 2721
2763 2763 2762 2762 2761 2761 2760 2760 2760 2759 2759 2758 2758 2757 2756 2755 2753 2752 2750 2749 2748 2747 2746 2744 2743 2741 2739 2738 2737 2737 2736 2736 2736 2737 2737 2738 2739 2740 2740 2741 2742 2744 2745 2745 2746 2747 2748 2749 2750 2750 2751 2752 2752 2753 2753 2754 2754 2754 2754 2754 2754 2754 2753 2752 2751 2751 2750 2749 2747 2746 2745 2743 2742 2740 2738 2737 2735 2733 2731 2729 2727 2724 2722 2720 2718
2763 2763 2762 2762 2761 2761 2761 2761 2760 2760 2759 2759 2758 2757 2756 2755 2754 2752 2751 2750 2749 2747 2746 2745 2744 2743 2741 2740 2740 2739 2739 2739 2739 2739 2740 2740 2741 2742 2743 2744 2745 2745 2746 2747 2748 2749 2749 2750 2751 2751 2752 2752 2753 2753 2753 2753 2754 2754 2753 2753 2753 2752 2751 2750 2749 2748 2747 2746 2745 2744 2742 2741 2739 2738 2736 2734 2732 2730 2728 2726 2723 2721 2719 2717 2715